sat.trackr.live / text

‹ back to catalog

2025-292E

NORAD 66997 · 2025-292E

PAYLOAD ACTIVE UNKNOWN

§ Identity

Operator
Country
PRC
Launch date
2025-12-10
Launch site
JSC
Launch vehicle
Mass (kg)
RCS (m²)

External: N2YO · Heavens-Above · Gunter

§ Orbital elements

Epoch: 2026-09-20T11:07:02.404992Z

Period
95.56 min
Inclination
97.6262°
Eccentricity
0.0015393
Mean motion
15.06945609 rev/d
Perigee alt
534.9 km
Apogee alt
556.2 km
Semi-major
6,923.7 km
B*
1.2492e-4
RAAN
338.3732°
Arg perigee
43.7017°
Mean anomaly
316.5426°
Rev number
4,278

§ Raw data

2025-292E1 66997U 25292E   26263.46322228  .00001809  00000+0  12492-3 0  99932 66997  97.6262 338.3732 0015393  43.7017 316.5426 15.06945609 42786

JSON: /api/v1/satellites/66997 · /tle

For live sub-satellite position, see the globe view (requires WebGL).

§ Visibility from observer

Set your observer location to see the next 7 days of passes ≥ 10°. The values pass through the URL so the page stays shareable.

No JS? Fill the form by hand. The geolocation button needs JavaScript.